[[{"header":{"parameterUnit":"m.s-1","parameterCategory":2,"la1":30.2991,"la2":30.254,"lo1":-89.0895,"lo2":-89.0444,"dy":0.0017,"dx":0.0017,"nx":28,"ny":28,"refTime":"2025-12-18T03:00:00:Z","depth":"0","parameterNumber":2,"parameterNumberName":"U-component_of_CURRENTS"},"data":[0,0,0,0,0,0,0,0,0,0,0,0,0,0,0,0,0,0,0,0,0,0,0,0,0,0,0,0,0,0,0,0,0,0,0,0,0,0,0,0,0,0,0,0,0,0,0,0,0,0,0,0,0,0,0,0,0,0,-0.2345,-0.2346,0,-0.2386,-0.2386,-0.2386,-0.2363,-0.2362,-0.2362,-0.2361,-0.2352,-0.2353,-0.2354,0,0,0,0,0,0,0,0,0,0,0,0,0,-0.2257,-0.2259,-0.2345,-0.2346,-0.2347,-0.2386,-0.2386,-0.2386,-0.2364,-0.2362,-0.2361,-0.236,-0.2352,-0.2353,-0.2354,0,0,0,0,0,0,0,0,0,0,0,0,0,-0.2295,-0.2259,-0.2345,-0.2342,-0.2342,-0.2385,-0.2386,-0.2386,-0.2364,-0.2362,-0.2361,-0.236,-0.2352,-0.2353,-0.2354,-0.2388,0,0,-0.2357,-0.2357,0,0,0,0,0,0,0,0,-0.2292,-0.2297,-0.2341,-0.2342,-0.2342,-0.237,-0.2352,-0.2385,-0.2364,-0.2353,-0.2361,-0.2359,-0.2356,-0.2357,-0.2365,-0.2387,-0.2387,-0.2357,-0.2357,-0.2358,-0.2358,0,0,0,0,0,0,0,-0.229,-0.2296,-0.2359,-0.2342,-0.2343,-0.2341,-0.2344,-0.2358,-0.236,-0.2354,-0.2353,-0.2361,-0.2355,-0.2364,-0.2365,-0.2387,-0.2357,-0.2358,-0.2358,-0.2359,-0.2434,-0.2436,0,0,0,0,0,0,-0.2291,-0.2294,-0.2358,-0.2361,-0.2316,-0.2344,-0.2348,-0.2361,-0.236,-0.236,-0.2362,-0.236,-0.2363,-0.2364,-0.2364,-0.2398,-0.2358,-0.2359,-0.2359,-0.2433,-0.2435,-0.2436,0,0,0,0,0,0,-0.2289,-0.2296,-0.2356,-0.2329,-0.2337,-0.2347,-0.2362,-0.2362,-0.2366,-0.2368,-0.2365,-0.2365,-0.2362,-0.2363,-0.2382,-0.2397,-0.2359,-0.236,-0.2431,-0.2433,-0.2435,-0.2469,0,0,0,0,0,0,-0.2286,-0.2295,-0.2301,-0.2329,-0.2338,-0.2384,-0.2364,-0.2364,-0.2374,-0.2371,-0.2369,-0.2367,-0.2361,-0.238,-0.2383,-0.2398,-0.2361,-0.2429,-0.2432,-0.2435,-0.2466,-0.2472,-0.2477,0,0,0,0,0,-0.2283,-0.2299,-0.2301,-0.2308,-0.2347,-0.2385,-0.239,-0.239,-0.2376,-0.2386,-0.2386,-0.2367,-0.2399,-0.2383,-0.2385,-0.24,-0.2428,-0.2431,-0.2435,-0.2463,-0.2471,-0.2477,0,0,0,0,0,0,-0.2263,-0.23,-0.2302,-0.2328,-0.2354,-0.2382,-0.239,-0.2394,-0.2403,-0.2395,-0.2388,-0.2388,-0.241,-0.2407,-0.2389,-0.2432,-0.241,-0.2414,-0.2431,-0.2438,-0.2443,-0.244,-0.2362,0,0,0,0,0,-0.2263,-0.2281,-0.2319,-0.2337,-0.2352,-0.2371,-0.2383,-0.239,-0.2405,-0.2407,-0.2408,-0.2413,-0.243,-0.2433,-0.2446,-0.247,-0.2454,-0.2483,-0.2488,-0.2493,-0.2494,-0.2494,-0.2499,-0.2447,-0.2447,-0.2447,0,0,-0.2258,-0.2282,-0.229,-0.2333,-0.235,-0.2383,-0.2374,-0.2399,-0.2423,-0.2406,-0.2429,-0.2434,-0.2442,-0.2469,-0.2479,-0.2464,-0.2498,-0.2497,-0.25,-0.2499,-0.2498,-0.2503,-0.2507,-0.2449,-0.2448,-0.2448,0,0,-0.2265,-0.2281,-0.2302,-0.2331,-0.2366,-0.2387,-0.2395,-0.2428,-0.2435,-0.2468,-0.2462,-0.2479,-0.2499,-0.2512,-0.2519,-0.2567,-0.253,-0.2566,-0.2587,-0.2588,-0.2591,-0.2594,-0.257,-0.2571,-0.2565,-0.2565,-0.2565,0,-0.2256,-0.229,-0.2313,-0.2347,-0.237,-0.239,-0.2422,-0.2445,-0.2478,-0.2489,-0.2477,-0.2518,-0.2523,-0.2559,-0.2573,-0.2578,-0.2559,-0.2558,-0.2593,-0.2596,-0.2598,-0.2573,-0.2573,-0.2567,-0.2567,-0.2567,-0.2566,0,-0.2283,-0.2312,-0.2328,-0.2377,-0.2408,-0.2437,-0.2479,-0.2503,-0.2512,-0.253,-0.2563,-0.2576,-0.2594,-0.2604,-0.2602,-0.263,-0.2602,-0.26,-0.257,-0.2605,-0.2576,-0.2576,-0.257,-0.2569,-0.2569,-0.2568,0,0,-0.2253,-0.2332,-0.2335,-0.2361,-0.2424,-0.2451,-0.25,-0.2547,-0.2568,-0.2595,-0.2619,-0.2655,-0.2649,-0.2658,-0.2658,-0.2661,-0.2663,-0.2635,-0.2634,-0.2601,-0.2639,-0.2571,-0.2563,-0.2658,-0.2659,-0.2659,-0.2607,0,-0.2262,-0.2323,-0.2365,-0.2417,-0.2451,-0.2495,-0.2537,-0.2581,-0.2609,-0.2638,-0.2655,-0.2677,-0.2673,-0.2676,-0.2683,-0.2675,-0.2666,-0.2676,-0.262,-0.2618,-0.2545,-0.2562,-0.2456,-0.2396,-0.2606,-0.2606,-0.2606,0,-0.227,-0.231,-0.2364,-0.2436,-0.2454,-0.2488,-0.2548,-0.2591,-0.2646,-0.2665,-0.2692,-0.2701,-0.2724,-0.2706,-0.2702,-0.2704,-0.2672,-0.2657,-0.2655,-0.2579,-0.2549,-0.2399,-0.2387,-0.2363,-0.2605,-0.2605,-0.2606,0,-0.2224,-0.2306,-0.2343,-0.2369,-0.2457,-0.2481,-0.2523,-0.2588,-0.262,-0.2673,-0.269,-0.2721,-0.2723,-0.2713,-0.2689,-0.2691,-0.2663,-0.2663,-0.2568,-0.2562,-0.2455,-0.2438,-0.2403,-0.2645,-0.2645,-0.2645,-0.2645,0,-0.2213,-0.2238,-0.2321,-0.2338,-0.2375,-0.245,-0.2488,-0.2538,-0.2602,-0.2629,-0.2687,-0.2701,-0.2722,-0.2713,-0.269,-0.2624,-0.2662,-0.2568,-0.2548,-0.2463,-0.2448,-0.2408,-0.2433,-0.2643,-0.2643,-0.2644,-0.2644,0,-0.2146,-0.2208,-0.2247,-0.233,-0.2353,-0.2373,-0.2454,-0.2479,-0.2556,-0.2591,-0.2605,-0.2675,-0.2666,-0.2669,-0.2646,-0.2607,-0.2515,-0.2525,-0.2412,-0.2379,-0.2265,-0.2296,-0.2246,-0.2179,-0.2412,-0.241,-0.2408,0,-0.2116,-0.2131,-0.221,-0.2222,-0.2253,-0.2299,-0.2325,-0.2428,-0.246,-0.2563,-0.2567,-0.2595,-0.2593,-0.2547,-0.2487,-0.2423,-0.2425,-0.2283,-0.2276,-0.2239,-0.2259,-0.2287,-0.2236,-0.2143,-0.2139,-0.2136,-0.2133,0,-0.204,-0.2066,-0.2095,-0.2124,-0.2152,-0.2189,-0.2241,-0.2267,-0.238,-0.2418,-0.2464,-0.2479,-0.2457,-0.2364,-0.2294,-0.2239,-0.2227,-0.2218,-0.2213,-0.2073,-0.2067,-0.1997,-0.2191,-0.2107,-0.2109,-0.2111,-0.2113,-0.2114,-0.196,-0.1958,-0.1992,-0.2007,-0.2038,-0.2056,-0.2045,-0.2117,-0.2154,-0.2196,-0.2297,-0.2296,-0.2262,-0.2154,-0.2091,-0.1951,-0.2024,-0.1894,-0.194,-0.1975,-0.1897,-0.2021,-0.19,-0.1901,-0.1902,-0.1903,-0.1904,0,-0.1851,-0.1861,-0.187,-0.1887,-0.1865,-0.1926,-0.196,-0.1931,-0.1925,-0.2016,-0.204,-0.206,-0.1954,-0.1926,-0.1808,-0.1713,-0.1664,-0.1671,-0.1689,-0.1652,-0.1774,-0.1747,-0.1545,-0.1545,-0.1545,-0.1545,-0.1545,-0.1545,-0.1794,-0.1763,-0.1771,-0.1703,-0.1705,-0.1638,-0.1628,-0.1612,-0.1646,-0.1661,-0.1722,-0.1816,-0.1823,-0.1891,-0.1728,-0.1619,-0.1577,-0.1523,-0.1556,-0.1657,-0.1682,-0.1705,-0.1684,-0.1473,-0.1473,-0.1356,-0.1355,-0.1355]},{"header":{"parameterUnit":"m.s-1","parameterCategory":2,"la1":30.2991,"la2":30.254,"lo1":-89.0895,"lo2":-89.0444,"dy":0.0017,"dx":0.0017,"nx":28,"ny":28,"refTime":"2025-12-18T03:00:00:Z","depth":"0","parameterNumber":3,"parameterNumberName":"V-component_of_CURRENTS"},"data":[0,0,0,0,0,0,0,0,0,0,0,0,0,0,0,0,0,0,0,0,0,0,0,0,0,0,0,0,0,0,0,0,0,0,0,0,0,0,0,0,0,0,0,0,0,0,0,0,0,0,0,0,0,0,0,0,0,0,-0.0351,-0.035,0,-0.0284,-0.0283,-0.0282,-0.023,-0.0229,-0.0229,-0.0229,-0.0119,-0.0116,-0.0114,0,0,0,0,0,0,0,0,0,0,0,0,0,-0.0389,-0.0389,-0.0351,-0.035,-0.035,-0.0284,-0.0283,-0.0282,-0.023,-0.0229,-0.0229,-0.0228,-0.012,-0.0117,-0.0113,0,0,0,0,0,0,0,0,0,0,0,0,0,-0.0351,-0.0389,-0.0351,-0.0317,-0.0313,-0.0284,-0.0283,-0.0281,-0.023,-0.0229,-0.0229,-0.0228,-0.0121,-0.0117,-0.0113,-0.0101,0,0,-0.0101,-0.01,0,0,0,0,0,0,0,0,-0.0354,-0.035,-0.0322,-0.0319,-0.0315,-0.0266,-0.0256,-0.0219,-0.023,-0.026,-0.0229,-0.0228,-0.0165,-0.0158,-0.0145,-0.0096,-0.0091,-0.0101,-0.0099,-0.0097,-0.0096,0,0,0,0,0,0,0,-0.0356,-0.0352,-0.0323,-0.0322,-0.0317,-0.0289,-0.0283,-0.0249,-0.0215,-0.0257,-0.0254,-0.0248,-0.0162,-0.0149,-0.0142,-0.0089,-0.0101,-0.0098,-0.0095,-0.0094,-0.001,-0.001,0,0,0,0,0,0,-0.037,-0.0355,-0.0325,-0.0321,-0.0335,-0.0289,-0.0283,-0.0281,-0.0216,-0.0206,-0.0249,-0.0246,-0.0156,-0.0147,-0.0138,-0.0123,-0.0097,-0.0093,-0.0091,-0.001,-0.001,-0.001,0,0,0,0,0,0,-0.0371,-0.0368,-0.0328,-0.0337,-0.033,-0.029,-0.0288,-0.028,-0.0266,-0.021,-0.0199,-0.0243,-0.0155,-0.0143,-0.0111,-0.0118,-0.0092,-0.0088,-0.001,-0.001,-0.001,-0.0091,0,0,0,0,0,0,-0.0373,-0.0369,-0.0374,-0.0338,-0.033,-0.0319,-0.0288,-0.0279,-0.0264,-0.026,-0.0202,-0.0191,-0.0154,-0.0117,-0.0108,-0.0112,-0.0085,-0.0009,-0.001,-0.001,-0.0088,-0.0094,-0.0099,0,0,0,0,0,-0.0374,-0.0387,-0.0375,-0.0371,-0.0338,-0.032,-0.0314,-0.0281,-0.0265,-0.0265,-0.0224,-0.0193,-0.0111,-0.0115,-0.0103,-0.0107,-0.0009,-0.001,-0.001,-0.0086,-0.0093,-0.0099,0,0,0,0,0,0,-0.0406,-0.0382,-0.0368,-0.0372,-0.0351,-0.0312,-0.0309,-0.0287,-0.0255,-0.025,-0.0196,-0.0182,-0.0156,-0.012,-0.0125,-0.0082,-0.0054,-0.0052,-0.0116,-0.0122,-0.0127,-0.0134,-0.0082,0,0,0,0,0,-0.0417,-0.0419,-0.0389,-0.0393,-0.0385,-0.0348,-0.0337,-0.0316,-0.0283,-0.0269,-0.0229,-0.0184,-0.0148,-0.0127,-0.0089,-0.0068,-0.002,-0.0061,-0.0066,-0.0071,-0.0068,-0.0011,-0.0011,-0.001,-0.001,-0.001,0,0,-0.043,-0.0417,-0.0417,-0.04,-0.0379,-0.038,-0.034,-0.0329,-0.0326,-0.0262,-0.0245,-0.0202,-0.0146,-0.0123,-0.0107,-0.0093,-0.0045,-0.0071,-0.0076,-0.007,-0.0011,-0.0011,-0.0011,-0.001,-0.001,-0.001,0,0,-0.0463,-0.0446,-0.0461,-0.0449,-0.0428,-0.0405,-0.0406,-0.0371,-0.0351,-0.0331,-0.0283,-0.0247,-0.0194,-0.0155,-0.0128,-0.0138,-0.0076,-0.0125,-0.0156,-0.0102,-0.0101,-0.0101,-0.004,-0.0033,-0.0127,-0.0127,-0.0127,0,-0.048,-0.0494,-0.0462,-0.0475,-0.0472,-0.0423,-0.0439,-0.0413,-0.0372,-0.0354,-0.0337,-0.025,-0.0209,-0.0168,-0.0173,-0.0151,-0.0105,-0.0142,-0.011,-0.0108,-0.0105,-0.0043,-0.0035,-0.0131,-0.013,-0.013,-0.013,0,-0.0525,-0.0535,-0.0543,-0.0543,-0.0535,-0.054,-0.0504,-0.0488,-0.0456,-0.0423,-0.0377,-0.0315,-0.0261,-0.0244,-0.0212,-0.0175,-0.0143,-0.0126,-0.0098,-0.0111,-0.0044,-0.0034,-0.0137,-0.0135,-0.0134,-0.0133,0,0,-0.0565,-0.0575,-0.0577,-0.0592,-0.0572,-0.0572,-0.0563,-0.0538,-0.0527,-0.0475,-0.045,-0.0386,-0.034,-0.0305,-0.0253,-0.0206,-0.0155,-0.0165,-0.016,-0.0113,-0.0025,0.0012,0.0028,-0.0133,-0.0132,-0.0131,0.0014,0,-0.0609,-0.0655,-0.0641,-0.0678,-0.0698,-0.0655,-0.0651,-0.0618,-0.0575,-0.0537,-0.0456,-0.0413,-0.0365,-0.0339,-0.0284,-0.0188,-0.0131,-0.0195,-0.0013,-0.0007,0.0021,0.004,0.0071,0.0204,0.0025,0.0026,0.0028,0,-0.0658,-0.0683,-0.0732,-0.0749,-0.0751,-0.0759,-0.0738,-0.0728,-0.0656,-0.0619,-0.0552,-0.0482,-0.0399,-0.036,-0.0196,-0.0239,-0.0138,-0.006,-0.0052,0.002,0.0051,0.0189,0.0231,0.0395,0.0045,0.0043,0.0042,0,-0.0709,-0.0745,-0.0788,-0.0795,-0.0802,-0.0808,-0.0802,-0.0752,-0.074,-0.0664,-0.0636,-0.0525,-0.0465,-0.0332,-0.0171,-0.0181,0.0018,0.0025,0.0161,0.0165,0.0247,0.0256,0.0464,0.0148,0.0148,0.0148,0.0147,0,-0.0766,-0.0799,-0.0816,-0.0842,-0.0883,-0.0863,-0.088,-0.0852,-0.0804,-0.0787,-0.068,-0.0628,-0.0455,-0.032,-0.0176,0.003,0.002,0.0169,0.0208,0.022,0.0224,0.0416,0.0477,0.0153,0.0152,0.0151,0.015,0,-0.0816,-0.0827,-0.0881,-0.0904,-0.0912,-0.094,-0.0944,-0.0948,-0.0892,-0.0863,-0.084,-0.0696,-0.0519,-0.0329,-0.0104,0.0025,0.0323,0.029,0.0295,0.0332,0.0592,0.0645,0.0898,0.0992,0.046,0.0462,0.0464,0,-0.0846,-0.0878,-0.0931,-0.0965,-0.0978,-0.1011,-0.1027,-0.0996,-0.0993,-0.0898,-0.0881,-0.071,-0.0574,-0.0223,0.0031,0.0303,0.0427,0.0491,0.0474,0.0628,0.0717,0.0757,0.0819,0.0559,0.0561,0.0563,0.0564,0,-0.0899,-0.0915,-0.0958,-0.103,-0.1066,-0.1107,-0.1124,-0.1136,-0.1086,-0.1039,-0.0938,-0.0821,-0.0476,-0.0157,0.0197,0.0365,0.0614,0.0536,0.0704,0.0824,0.0875,0.0975,0.0443,0.058,0.0579,0.0578,0.0577,0.0576,-0.0927,-0.0972,-0.1026,-0.1091,-0.1139,-0.1186,-0.1209,-0.1208,-0.1194,-0.1111,-0.0992,-0.0789,-0.0317,0.0187,0.0386,0.081,0.0773,0.0934,0.0991,0.1022,0.1101,0.0602,0.0769,0.0768,0.0768,0.0768,0.0767,0,-0.0957,-0.1009,-0.108,-0.1155,-0.1214,-0.1223,-0.1256,-0.1253,-0.1231,-0.1128,-0.1006,-0.0516,-0.0032,0.0417,0.1009,0.1248,0.1303,0.1368,0.1443,0.1489,0.1069,0.1061,0.1287,0.1287,0.1287,0.1287,0.1286,0.1286,-0.0975,-0.1047,-0.1088,-0.1193,-0.1243,-0.1289,-0.1303,-0.1282,-0.1209,-0.1002,-0.0755,-0.0567,0.0098,0.1061,0.1623,0.1683,0.1882,0.1873,0.1977,0.1691,0.1655,0.162,0.1629,0.1971,0.1972,0.2382,0.2386,0.2389]}],[{"header":{"parameterUnit":"m.s-1","parameterCategory":2,"la1":30.2991,"la2":30.254,"lo1":-89.0895,"lo2":-89.0444,"dy":0.0017,"dx":0.0017,"nx":28,"ny":28,"refTime":"2025-12-18T03:00:00:Z","depth":"2","parameterNumber":2,"parameterNumberName":"U-component_of_CURRENTS"},"data":[0,0,0,0,0,0,0,0,0,0,0,0,0,0,0,0,0,0,0,0,0,0,0,0,0,0,0,0,0,0,0,0,0,0,0,0,0,0,0,0,0,0,0,0,0,0,0,0,0,0,0,0,0,0,0,0,0,0,-0.2148,-0.2148,0,-0.2187,-0.2187,-0.2187,-0.2172,-0.2172,-0.2171,-0.217,-0.2169,-0.217,-0.217,0,0,0,0,0,0,0,0,0,0,0,0,0,-0.207,-0.2071,-0.2148,-0.2148,-0.2149,-0.2186,-0.2187,-0.2187,-0.2173,-0.2172,-0.2171,-0.217,-0.2169,-0.2169,-0.217,0,0,0,0,0,0,0,0,0,0,0,0,0,-0.2104,-0.2072,-0.2148,-0.2148,-0.2148,-0.2186,-0.2187,-0.2187,-0.2173,-0.2172,-0.217,-0.2169,-0.2168,-0.2169,-0.217,-0.2198,0,0,-0.2173,-0.2174,0,0,0,0,0,0,0,0,-0.2102,-0.2107,-0.2147,-0.2148,-0.2148,-0.2175,-0.2159,-0.219,-0.2173,-0.2162,-0.217,-0.2169,-0.2169,-0.217,-0.2178,-0.2198,-0.2198,-0.2173,-0.2174,-0.2174,-0.2175,0,0,0,0,0,0,0,-0.21,-0.2105,-0.2161,-0.2148,-0.2149,-0.2149,-0.2152,-0.2165,-0.2169,-0.2162,-0.2162,-0.2169,-0.2169,-0.2177,-0.2178,-0.2198,-0.2173,-0.2174,-0.2175,-0.2175,-0.2249,-0.225,0,0,0,0,0,0,-0.21,-0.2103,-0.216,-0.2163,-0.2124,-0.2151,-0.2155,-0.2166,-0.217,-0.217,-0.217,-0.2169,-0.2176,-0.2177,-0.2177,-0.2214,-0.2174,-0.2175,-0.2176,-0.2247,-0.2249,-0.225,0,0,0,0,0,0,-0.2098,-0.2105,-0.2159,-0.2135,-0.2142,-0.2154,-0.2167,-0.2168,-0.2174,-0.2176,-0.2175,-0.2175,-0.2175,-0.2176,-0.2197,-0.2213,-0.2176,-0.2177,-0.2246,-0.2248,-0.225,-0.2285,0,0,0,0,0,0,-0.2096,-0.2104,-0.211,-0.2135,-0.2143,-0.2185,-0.2168,-0.2169,-0.2181,-0.2179,-0.2181,-0.2179,-0.2174,-0.2195,-0.2198,-0.2214,-0.2177,-0.2244,-0.2247,-0.2249,-0.2282,-0.2288,-0.2293,0,0,0,0,0,-0.2093,-0.2108,-0.211,-0.2117,-0.2152,-0.2186,-0.2191,-0.2194,-0.2182,-0.2193,-0.2196,-0.2179,-0.2213,-0.2198,-0.22,-0.2217,-0.2243,-0.2246,-0.2249,-0.2279,-0.2286,-0.2293,0,0,0,0,0,0,-0.2077,-0.2109,-0.2111,-0.2135,-0.216,-0.2184,-0.2194,-0.2198,-0.221,-0.2204,-0.2199,-0.2199,-0.2224,-0.2221,-0.2204,-0.2247,-0.2225,-0.2229,-0.2247,-0.2254,-0.2259,-0.2254,-0.2178,0,0,0,0,0,-0.2078,-0.2094,-0.2127,-0.2144,-0.2158,-0.2176,-0.2188,-0.2196,-0.2211,-0.2215,-0.2219,-0.2225,-0.2242,-0.2246,-0.2259,-0.2284,-0.2269,-0.2297,-0.2302,-0.2307,-0.2306,-0.2308,-0.2312,-0.2261,-0.2261,-0.2261,0,0,-0.2074,-0.2095,-0.2103,-0.2141,-0.2157,-0.2188,-0.218,-0.2205,-0.2228,-0.2214,-0.224,-0.2246,-0.2254,-0.2282,-0.2292,-0.2278,-0.2314,-0.2311,-0.2314,-0.2311,-0.2311,-0.2316,-0.232,-0.2263,-0.2262,-0.2262,0,0,-0.2081,-0.2097,-0.2115,-0.2142,-0.2175,-0.2194,-0.2203,-0.2234,-0.2244,-0.2277,-0.2273,-0.2291,-0.2313,-0.2324,-0.2331,-0.2377,-0.2345,-0.2379,-0.2399,-0.2401,-0.2404,-0.2408,-0.2388,-0.2389,-0.2378,-0.2378,-0.2379,0,-0.2075,-0.2105,-0.2126,-0.2156,-0.2178,-0.2198,-0.2228,-0.2251,-0.2285,-0.2297,-0.2289,-0.233,-0.2335,-0.2369,-0.2384,-0.2389,-0.2373,-0.2371,-0.2406,-0.2409,-0.2411,-0.2391,-0.2392,-0.2381,-0.238,-0.238,-0.238,0,-0.21,-0.2127,-0.2141,-0.2185,-0.2214,-0.2243,-0.2282,-0.2307,-0.2319,-0.2338,-0.2373,-0.2386,-0.2406,-0.2416,-0.2413,-0.244,-0.2417,-0.2413,-0.2384,-0.2418,-0.2395,-0.2395,-0.2383,-0.2383,-0.2382,-0.2382,0,0,-0.2074,-0.2144,-0.2147,-0.2171,-0.2231,-0.2255,-0.2303,-0.2348,-0.237,-0.2401,-0.2426,-0.2461,-0.2458,-0.2467,-0.2467,-0.247,-0.2476,-0.2447,-0.2446,-0.2418,-0.2459,-0.2387,-0.238,-0.2472,-0.2473,-0.2473,-0.2432,0,-0.2082,-0.2136,-0.2175,-0.2224,-0.2254,-0.2296,-0.2338,-0.238,-0.241,-0.2441,-0.246,-0.2484,-0.2481,-0.2486,-0.2493,-0.2485,-0.2478,-0.2486,-0.2438,-0.2436,-0.2361,-0.2379,-0.2206,-0.215,-0.2432,-0.2432,-0.2432,0,-0.2089,-0.2125,-0.2174,-0.224,-0.2257,-0.229,-0.2349,-0.2391,-0.2446,-0.2467,-0.2497,-0.2508,-0.2531,-0.2515,-0.2514,-0.2515,-0.2488,-0.2474,-0.2472,-0.2392,-0.2365,-0.2164,-0.2139,-0.2432,-0.2432,-0.2432,-0.2432,0,-0.2047,-0.2122,-0.2156,-0.218,-0.2261,-0.2286,-0.2326,-0.2389,-0.242,-0.2476,-0.2494,-0.2527,-0.2533,-0.2525,-0.2504,-0.2506,-0.2483,-0.2483,-0.2391,-0.2385,-0.2221,-0.22,-0.2469,-0.2469,-0.2469,-0.247,-0.247,0,-0.2036,-0.206,-0.2136,-0.2152,-0.2188,-0.2257,-0.2296,-0.2345,-0.2408,-0.2433,-0.2493,-0.2507,-0.2533,-0.2527,-0.2506,-0.2444,-0.2484,-0.2391,-0.2372,-0.2229,-0.221,-0.2444,-0.2442,-0.2468,-0.2468,-0.2469,-0.2469,0,-0.1976,-0.2032,-0.2069,-0.2146,-0.2168,-0.2188,-0.2265,-0.2289,-0.2365,-0.2399,-0.2414,-0.2484,-0.2478,-0.2486,-0.2467,-0.243,-0.239,-0.2353,-0.2174,-0.2135,-0.2289,-0.2289,-0.225,-0.2247,-0.2244,-0.2242,-0.2241,0,-0.1948,-0.1962,-0.2035,-0.2047,-0.2077,-0.2121,-0.2146,-0.2244,-0.2272,-0.2371,-0.2372,-0.2405,-0.2398,-0.2358,-0.2299,-0.224,-0.2314,-0.2045,-0.2025,-0.2281,-0.2268,-0.2272,-0.2275,-0.1817,-0.1812,-0.1808,-0.1805,0,-0.188,-0.1906,-0.1931,-0.1958,-0.1984,-0.2017,-0.2064,-0.2085,-0.2189,-0.2223,-0.226,-0.227,-0.225,-0.2121,-0.2058,-0.2001,-0.2047,-0.1959,-0.2265,-0.1908,-0.1872,-0.186,-0.1878,-0.1768,-0.1772,-0.1775,-0.1777,-0.1778,-0.181,-0.1807,-0.1838,-0.185,-0.1879,-0.1888,-0.1873,-0.1933,-0.1958,-0.1982,-0.2079,-0.204,-0.203,-0.1854,-0.1755,-0.1677,-0.182,-0.1737,-0.175,-0.1767,-0.1733,-0.1696,-0.1551,-0.1553,-0.1555,-0.1557,-0.1559,0,-0.1713,-0.172,-0.1725,-0.1737,-0.1713,-0.177,-0.1791,-0.1752,-0.1728,-0.1783,-0.1792,-0.1634,-0.155,-0.1548,-0.1376,-0.1337,-0.1322,-0.1277,-0.1262,-0.1299,-0.1332,-0.1276,-0.0972,-0.097,-0.0969,-0.0967,0,0,-0.1662,-0.163,-0.1632,-0.1561,-0.1561,-0.1493,-0.1474,-0.144,-0.1444,-0.1391,-0.1377,-0.1494,-0.1524,-0.1263,-0.1186,-0.1059,-0.1167,-0.0999,-0.147,-0.1491,-0.1522,-0.1597,-0.1552,0,0,0,0,0]},{"header":{"parameterUnit":"m.s-1","parameterCategory":2,"la1":30.2991,"la2":30.254,"lo1":-89.0895,"lo2":-89.0444,"dy":0.0017,"dx":0.0017,"nx":28,"ny":28,"refTime":"2025-12-18T03:00:00:Z","depth":"2","parameterNumber":3,"parameterNumberName":"V-component_of_CURRENTS"},"data":[0,0,0,0,0,0,0,0,0,0,0,0,0,0,0,0,0,0,0,0,0,0,0,0,0,0,0,0,0,0,0,0,0,0,0,0,0,0,0,0,0,0,0,0,0,0,0,0,0,0,0,0,0,0,0,0,0,0,-0.0182,-0.0181,0,-0.0119,-0.0118,-0.0117,-0.0069,-0.0069,-0.0069,-0.0069,0.0033,0.0035,0.0037,0,0,0,0,0,0,0,0,0,0,0,0,0,-0.0217,-0.0217,-0.0182,-0.0181,-0.018,-0.0119,-0.0118,-0.0117,-0.0069,-0.0069,-0.0069,-0.0068,0.0032,0.0035,0.0038,0,0,0,0,0,0,0,0,0,0,0,0,0,-0.0182,-0.0217,-0.0182,-0.015,-0.0147,-0.0119,-0.0118,-0.0116,-0.007,-0.0069,-0.0069,-0.0068,0.0031,0.0034,0.0038,0.0051,0,0,0.0049,0.0051,0,0,0,0,0,0,0,0,-0.0184,-0.018,-0.0156,-0.0152,-0.0149,-0.0102,-0.0093,-0.0059,-0.007,-0.0098,-0.0068,-0.0068,-0.001,-0.0003,0.0009,0.0055,0.006,0.0049,0.0051,0.0053,0.0054,0,0,0,0,0,0,0,-0.0186,-0.0182,-0.0155,-0.0155,-0.0151,-0.0124,-0.0119,-0.0086,-0.0056,-0.0095,-0.0092,-0.0087,-0.0008,0.0005,0.0012,0.0061,0.0049,0.0052,0.0055,0.0056,0.0135,0.0135,0,0,0,0,0,0,-0.02,-0.0185,-0.0157,-0.0154,-0.0167,-0.0124,-0.0118,-0.0117,-0.0057,-0.0048,-0.0087,-0.0085,-0.0001,0.0007,0.0015,0.003,0.0053,0.0056,0.0058,0.0135,0.0135,0.0135,0,0,0,0,0,0,-0.0201,-0.0198,-0.016,-0.0169,-0.0162,-0.0125,-0.0123,-0.0116,-0.0103,-0.0052,-0.0041,-0.0083,-0.0,0.001,0.004,0.0035,0.0058,0.0061,0.0135,0.0135,0.0135,0.0062,0,0,0,0,0,0,-0.0202,-0.0199,-0.0204,-0.017,-0.0162,-0.0152,-0.0123,-0.0115,-0.0102,-0.0098,-0.0044,-0.0034,0.0001,0.0034,0.0043,0.004,0.0064,0.0135,0.0135,0.0135,0.0065,0.006,0.0055,0,0,0,0,0,-0.0203,-0.0215,-0.0204,-0.0201,-0.017,-0.0153,-0.0146,-0.0117,-0.0102,-0.0102,-0.0065,-0.0036,0.004,0.0037,0.0048,0.0045,0.0135,0.0135,0.0135,0.0067,0.0061,0.0055,0,0,0,0,0,0,-0.0233,-0.0211,-0.0198,-0.0202,-0.0182,-0.0145,-0.0143,-0.0123,-0.0093,-0.0089,-0.0038,-0.0026,-0.0002,0.0032,0.0027,0.0069,0.0094,0.0095,0.0038,0.0033,0.0028,0.0017,0.0067,0,0,0,0,0,-0.0244,-0.0246,-0.0218,-0.0221,-0.0214,-0.018,-0.0169,-0.015,-0.012,-0.0106,-0.007,-0.0028,0.0006,0.0026,0.0061,0.0082,0.0124,0.0089,0.0085,0.008,0.008,0.0133,0.0133,0.0134,0.0134,0.0134,0,0,-0.0256,-0.0244,-0.0244,-0.0228,-0.0209,-0.0209,-0.0172,-0.0162,-0.0159,-0.01,-0.0084,-0.0045,0.0008,0.0031,0.0045,0.0059,0.0103,0.008,0.0076,0.0078,0.0133,0.0132,0.0132,0.0134,0.0134,0.0134,0,0,-0.0285,-0.0271,-0.0284,-0.0274,-0.0254,-0.0233,-0.0234,-0.0201,-0.0183,-0.0164,-0.012,-0.0085,-0.0036,0.0002,0.0028,0.0019,0.0074,0.0031,0.0001,0.0051,0.0052,0.0052,0.0105,0.0111,0.003,0.003,0.003,0,-0.0302,-0.0314,-0.0285,-0.0296,-0.0294,-0.0249,-0.0263,-0.0239,-0.0201,-0.0186,-0.017,-0.009,-0.0049,-0.001,-0.0014,0.0008,0.0047,0.0014,0.0044,0.0046,0.0048,0.0102,0.011,0.0027,0.0027,0.0028,0.0028,0,-0.0341,-0.0351,-0.0358,-0.0357,-0.035,-0.0354,-0.0321,-0.0307,-0.0279,-0.0249,-0.0208,-0.0148,-0.0099,-0.0081,-0.0051,-0.0016,0.001,0.0028,0.0054,0.0043,0.0102,0.0111,0.0022,0.0023,0.0024,0.0025,0,0,-0.0378,-0.0386,-0.0389,-0.0402,-0.0384,-0.0384,-0.0376,-0.0353,-0.0345,-0.0297,-0.0276,-0.0214,-0.0173,-0.014,-0.0091,-0.0046,-0.0001,-0.001,-0.0005,0.0035,0.0116,0.0139,0.0152,0.0021,0.0022,0.0023,0.015,0,-0.0418,-0.0459,-0.0446,-0.0479,-0.0497,-0.0459,-0.0456,-0.0427,-0.0389,-0.0356,-0.028,-0.0242,-0.0197,-0.0173,-0.0121,-0.0033,0.002,-0.0037,0.0128,0.0133,0.0149,0.0162,0.0132,0.0243,0.016,0.0161,0.0162,0,-0.0462,-0.0485,-0.0528,-0.0544,-0.0547,-0.0555,-0.0539,-0.053,-0.0467,-0.0435,-0.0375,-0.0311,-0.0234,-0.0196,-0.0047,-0.0086,0.0008,0.008,0.0087,0.0142,0.0173,0.0243,0.0264,0.0178,0.0177,0.0176,0.0175,0,-0.0509,-0.0542,-0.058,-0.0587,-0.0594,-0.0601,-0.0597,-0.0554,-0.0546,-0.0479,-0.0457,-0.0355,-0.0301,-0.0178,-0.0029,-0.0036,0.0141,0.0154,0.0269,0.0273,0.0297,0.03,0.0267,0.0266,0.0266,0.0266,0.0265,0,-0.056,-0.0591,-0.0607,-0.0631,-0.0671,-0.0653,-0.0674,-0.065,-0.061,-0.06,-0.0501,-0.046,-0.0294,-0.0172,-0.0038,0.0144,0.014,0.0272,0.0309,0.0271,0.027,0.0251,0.0248,0.0271,0.0269,0.0269,0.0268,0,-0.0607,-0.0616,-0.0666,-0.0689,-0.0698,-0.0726,-0.0736,-0.0744,-0.0697,-0.0677,-0.0657,-0.0531,-0.0372,-0.0194,0.0015,0.0132,0.0303,0.0372,0.0317,0.0344,0.0405,0.0396,0.0513,0.0515,0.0517,0.0518,0.0519,0,-0.0635,-0.0665,-0.0716,-0.0749,-0.0762,-0.0796,-0.0816,-0.0791,-0.0793,-0.0717,-0.0706,-0.0555,-0.0436,-0.0119,0.0107,0.0357,0.0359,0.0475,0.0458,0.0407,0.0431,0.042,0.0409,0.0467,0.0468,0.0468,0.0469,0,-0.0687,-0.0702,-0.0742,-0.0813,-0.085,-0.0891,-0.0912,-0.0927,-0.0888,-0.085,-0.0768,-0.0665,-0.0364,-0.0102,0.0215,0.0358,0.0428,0.0494,0.047,0.0399,0.0372,0.0392,0.0382,0.0473,0.0473,0.0473,0.0472,0.0472,-0.0716,-0.0759,-0.081,-0.0873,-0.0923,-0.097,-0.0994,-0.0997,-0.099,-0.0919,-0.0821,-0.0643,-0.0385,0.0059,0.0291,0.0506,0.0501,0.0562,0.0557,0.0553,0.0514,0.049,0.0608,0.0608,0.0608,0.0609,0.0609,0,-0.0751,-0.0798,-0.0865,-0.0938,-0.0996,-0.1007,-0.1043,-0.1038,-0.1021,-0.0934,-0.0828,-0.0539,-0.0234,0.0042,0.0386,0.059,0.0574,0.0623,0.056,0.0554,0.055,0.0509,0.0602,0.0603,0.0604,0.0604,0,0,-0.0771,-0.0838,-0.0875,-0.0977,-0.1027,-0.1075,-0.1089,-0.1064,-0.0999,-0.0904,-0.0773,-0.0585,-0.024,0.0,0.0259,0.0441,0.0444,0.0459,0.0443,0.0333,0.0326,0.0495,0.0423,0,0,0,0,0]}],[{"header":{"parameterUnit":"m.s-1","parameterCategory":2,"la1":30.2991,"la2":30.254,"lo1":-89.0895,"lo2":-89.0444,"dy":0.0017,"dx":0.0017,"nx":28,"ny":28,"refTime":"2025-12-18T03:00:00:Z","depth":"4","parameterNumber":2,"parameterNumberName":"U-component_of_CURRENTS"},"data":[0,0,0,0,0,0,0,0,0,0,0,0,0,0,0,0,0,0,0,0,0,0,0,0,0,0,0,0,0,0,0,0,0,0,0,0,0,0,0,0,0,0,0,0,0,0,0,0,0,0,0,0,0,0,0,0,0,0,-0.156,-0.1561,0,-0.1626,-0.1626,-0.1627,-0.1665,-0.1665,-0.1665,-0.1665,-0.1725,-0.1726,-0.1728,0,0,0,0,0,0,0,0,0,0,0,0,0,-0.1472,-0.1473,-0.156,-0.1561,-0.1562,-0.1626,-0.1626,-0.1627,-0.1665,-0.1665,-0.1665,-0.1665,-0.1725,-0.1726,-0.1728,0,0,0,0,0,0,0,0,0,0,0,0,0,-0.152,-0.1473,-0.156,-0.1589,-0.1592,-0.1625,-0.1626,-0.1627,-0.1665,-0.1665,-0.1665,-0.1666,-0.1724,-0.1726,-0.1728,-0.1733,0,0,-0.1734,-0.1735,0,0,0,0,0,0,0,0,-0.1517,-0.1523,-0.1584,-0.1587,-0.1591,-0.1638,-0.1617,-0.1663,-0.1664,-0.1636,-0.1665,-0.1666,-0.1696,-0.17,-0.171,-0.1736,-0.1738,-0.1734,-0.1736,-0.1736,-0.1737,0,0,0,0,0,0,0,-0.1514,-0.152,-0.1585,-0.1585,-0.1589,-0.1601,-0.1608,-0.1626,-0.1662,-0.1638,-0.1642,-0.1651,-0.1698,-0.1708,-0.1712,-0.1739,-0.1734,-0.1736,-0.1737,-0.1738,-0.1845,-0.1846,0,0,0,0,0,0,-0.1507,-0.1517,-0.1583,-0.1587,-0.1555,-0.1602,-0.161,-0.1622,-0.1662,-0.1669,-0.165,-0.1652,-0.1705,-0.1709,-0.1714,-0.1788,-0.1736,-0.1738,-0.174,-0.1843,-0.1845,-0.1847,0,0,0,0,0,0,-0.1505,-0.1513,-0.158,-0.1554,-0.1564,-0.1603,-0.1616,-0.1623,-0.1659,-0.1671,-0.1678,-0.1683,-0.1705,-0.1711,-0.1759,-0.1788,-0.1739,-0.1741,-0.1841,-0.1844,-0.1846,-0.1894,0,0,0,0,0,0,-0.1503,-0.1512,-0.1531,-0.1554,-0.1565,-0.1618,-0.1616,-0.1624,-0.1663,-0.1667,-0.1701,-0.1705,-0.1706,-0.1756,-0.1761,-0.179,-0.1743,-0.1839,-0.1842,-0.1845,-0.189,-0.1897,-0.1904,0,0,0,0,0,-0.1499,-0.1521,-0.1532,-0.154,-0.1586,-0.1619,-0.1627,-0.1654,-0.1665,-0.1687,-0.1714,-0.1706,-0.1778,-0.1759,-0.1764,-0.1795,-0.1838,-0.1842,-0.1845,-0.1887,-0.1896,-0.1904,0,0,0,0,0,0,-0.1495,-0.1527,-0.154,-0.1571,-0.1602,-0.1627,-0.1653,-0.167,-0.1709,-0.172,-0.1728,-0.1735,-0.1787,-0.1787,-0.1765,-0.1835,-0.1806,-0.1811,-0.1836,-0.1845,-0.1852,-0.1842,-0.1744,0,0,0,0,0,-0.1502,-0.1527,-0.1557,-0.1586,-0.1603,-0.1633,-0.1655,-0.1675,-0.1705,-0.1724,-0.1749,-0.1776,-0.1802,-0.1821,-0.1843,-0.1882,-0.1865,-0.1905,-0.1912,-0.1918,-0.1915,-0.1918,-0.1924,-0.1859,-0.1859,-0.1859,0,0,-0.1509,-0.153,-0.1546,-0.1587,-0.1613,-0.1646,-0.1648,-0.169,-0.1724,-0.1724,-0.1786,-0.1804,-0.1819,-0.1864,-0.1887,-0.1871,-0.1929,-0.1923,-0.1927,-0.1921,-0.1923,-0.1929,-0.1934,-0.1861,-0.1861,-0.186,0,0,-0.1525,-0.1555,-0.1579,-0.1608,-0.1653,-0.1673,-0.1691,-0.1734,-0.1763,-0.1818,-0.1826,-0.1864,-0.1909,-0.1923,-0.1934,-0.1993,-0.1966,-0.2004,-0.2031,-0.2035,-0.204,-0.2044,-0.2029,-0.2032,-0.2007,-0.2007,-0.2007,0,-0.1534,-0.1567,-0.1593,-0.1625,-0.1654,-0.1688,-0.1723,-0.1757,-0.1814,-0.1838,-0.1847,-0.1918,-0.1935,-0.1976,-0.1999,-0.2007,-0.1996,-0.1997,-0.2042,-0.2046,-0.2049,-0.2033,-0.2035,-0.2009,-0.2009,-0.2009,-0.2009,0,-0.156,-0.1599,-0.1618,-0.1668,-0.1703,-0.1741,-0.1786,-0.1831,-0.187,-0.1897,-0.196,-0.1986,-0.2022,-0.2039,-0.2038,-0.2076,-0.2056,-0.2049,-0.2016,-0.2058,-0.2039,-0.204,-0.2013,-0.2012,-0.2012,-0.2011,0,0,-0.1542,-0.1621,-0.163,-0.1661,-0.1731,-0.1758,-0.1822,-0.1878,-0.1916,-0.1974,-0.2017,-0.2071,-0.2082,-0.2094,-0.2102,-0.211,-0.2128,-0.2093,-0.2091,-0.2068,-0.2123,-0.1983,-0.197,-0.2128,-0.2129,-0.2129,-0.21,0,-0.1555,-0.1615,-0.1656,-0.1721,-0.1754,-0.181,-0.1861,-0.1919,-0.1968,-0.2019,-0.2053,-0.2098,-0.2104,-0.2123,-0.2136,-0.2133,-0.2134,-0.2136,-0.2094,-0.2093,-0.1954,-0.1968,-0.2131,-0.21,-0.2101,-0.2101,-0.2101,0,-0.1559,-0.1601,-0.1664,-0.1743,-0.1764,-0.1812,-0.1892,-0.1943,-0.2016,-0.2054,-0.2102,-0.2126,-0.2164,-0.2155,-0.2167,-0.2168,-0.215,-0.2139,-0.2138,-0.1987,-0.1953,-0.2051,-0.2102,-0.2102,-0.2102,-0.2102,-0.2102,0,-0.1514,-0.1603,-0.1654,-0.1683,-0.1778,-0.1822,-0.1875,-0.1955,-0.1995,-0.2074,-0.2102,-0.2152,-0.2173,-0.2174,-0.2162,-0.2168,-0.215,-0.2154,-0.2008,-0.1998,-0.2113,-0.2109,-0.2148,-0.2149,-0.2149,-0.2149,-0.2149,0,-0.1493,-0.1537,-0.1642,-0.1667,-0.1726,-0.1804,-0.1867,-0.1928,-0.2004,-0.2033,-0.2113,-0.2126,-0.2178,-0.2176,-0.2163,-0.2075,-0.2151,-0.2002,-0.1978,-0.2135,-0.2133,-0.2113,-0.2109,-0.2148,-0.2148,-0.2148,-0.2148,0,-0.1428,-0.1503,-0.1563,-0.1671,-0.1707,-0.1748,-0.1852,-0.1883,-0.1974,-0.2012,-0.2036,-0.2109,-0.2102,-0.2125,-0.2115,-0.2052,-0.2001,-0.1951,-0.2104,-0.2091,-0.1849,-0.1848,-0.1784,-0.1779,-0.1774,-0.1771,-0.1767,0,-0.1396,-0.1424,-0.1544,-0.1575,-0.1627,-0.1702,-0.1741,-0.1852,-0.1876,-0.1975,-0.1968,-0.2009,-0.2036,-0.1907,-0.1954,-0.1904,-0.1885,-0.1843,-0.1855,-0.1826,-0.181,-0.1817,-0.1823,-0.176,-0.1759,-0.1758,-0.1757,0,-0.1325,-0.1383,-0.143,-0.1493,-0.1548,-0.1596,-0.1661,-0.1665,-0.177,-0.1871,-0.1844,-0.1833,-0.1817,-0.1806,-0.1771,-0.1743,-0.1865,-0.1796,-0.1806,-0.1817,-0.1797,-0.1787,-0.1798,-0.1741,-0.1744,-0.1745,-0.1746,0,-0.127,-0.1282,-0.1349,-0.1388,-0.1452,-0.1459,-0.1514,-0.1532,-0.1572,-0.1684,-0.1666,-0.1717,-0.179,-0.172,-0.1692,-0.1646,-0.1629,-0.1577,-0.1598,-0.1615,-0.1573,-0.1524,-0.1351,0,0,0,0,0,-0.1204,-0.1202,-0.1232,-0.1269,-0.1324,-0.1357,-0.1439,-0.1494,-0.1596,-0.1529,-0.1594,-0.1572,-0.1535,-0.1567,-0.1484,-0.1617,-0.1636,-0.1513,-0.1588,-0.1655,-0.1673,-0.1639,0,0,0,0,0,0,-0.1159,-0.1188,-0.1191,-0.1154,-0.1152,-0.1196,-0.1242,-0.1315,-0.1287,-0.1398,-0.1385,-0.1469,-0.1458,-0.1554,-0.1449,-0.1456,-0.1469,-0.1554,-0.1549,-0.1645,-0.1661,-0.1676,-0.1647,0,0,0,0,0]},{"header":{"parameterUnit":"m.s-1","parameterCategory":2,"la1":30.2991,"la2":30.254,"lo1":-89.0895,"lo2":-89.0444,"dy":0.0017,"dx":0.0017,"nx":28,"ny":28,"refTime":"2025-12-18T03:00:00:Z","depth":"4","parameterNumber":3,"parameterNumberName":"V-component_of_CURRENTS"},"data":[0,0,0,0,0,0,0,0,0,0,0,0,0,0,0,0,0,0,0,0,0,0,0,0,0,0,0,0,0,0,0,0,0,0,0,0,0,0,0,0,0,0,0,0,0,0,0,0,0,0,0,0,0,0,0,0,0,0,-0.0106,-0.0105,0,-0.0061,-0.006,-0.006,-0.0025,-0.0025,-0.0025,-0.0025,0.0055,0.0057,0.0059,0,0,0,0,0,0,0,0,0,0,0,0,0,-0.0127,-0.0127,-0.0106,-0.0105,-0.0105,-0.0061,-0.006,-0.006,-0.0025,-0.0025,-0.0025,-0.0025,0.0054,0.0057,0.0059,0,0,0,0,0,0,0,0,0,0,0,0,0,-0.0103,-0.0127,-0.0106,-0.0083,-0.0081,-0.0061,-0.006,-0.0059,-0.0025,-0.0025,-0.0025,-0.0024,0.0054,0.0057,0.0059,0.0071,0,0,0.0068,0.0069,0,0,0,0,0,0,0,0,-0.0104,-0.0102,-0.0087,-0.0085,-0.0082,-0.0049,-0.0039,-0.0015,-0.0026,-0.0045,-0.0025,-0.0024,0.0022,0.0028,0.0037,0.0074,0.0078,0.0068,0.007,0.0071,0.0072,0,0,0,0,0,0,0,-0.0106,-0.0103,-0.0087,-0.0087,-0.0084,-0.0064,-0.006,-0.0034,-0.0012,-0.0044,-0.0041,-0.0038,0.0024,0.0034,0.0039,0.0079,0.0068,0.0071,0.0073,0.0074,0.0138,0.0138,0,0,0,0,0,0,-0.0116,-0.0105,-0.0088,-0.0086,-0.0094,-0.0064,-0.006,-0.0059,-0.0013,-0.0007,-0.0038,-0.0037,0.0029,0.0036,0.0042,0.0054,0.0071,0.0074,0.0076,0.0138,0.0138,0.0138,0,0,0,0,0,0,-0.0116,-0.0115,-0.009,-0.0095,-0.009,-0.0064,-0.0064,-0.0059,-0.005,-0.001,-0.0002,-0.0036,0.0029,0.0038,0.0061,0.0057,0.0075,0.0078,0.0138,0.0138,0.0138,0.008,0,0,0,0,0,0,-0.0117,-0.0115,-0.0121,-0.0096,-0.0091,-0.0085,-0.0064,-0.0058,-0.0049,-0.0047,-0.0005,0.0003,0.003,0.0056,0.0064,0.0062,0.008,0.0139,0.0138,0.0138,0.0082,0.0078,0.0075,0,0,0,0,0,-0.0118,-0.0128,-0.0121,-0.0119,-0.0098,-0.0086,-0.0081,-0.006,-0.005,-0.0051,-0.0022,0.0001,0.0062,0.0058,0.0067,0.0066,0.0139,0.0138,0.0138,0.0084,0.0079,0.0075,0,0,0,0,0,0,-0.014,-0.0125,-0.0117,-0.0121,-0.0108,-0.008,-0.008,-0.0065,-0.0043,-0.004,-0.0001,0.0009,0.0028,0.0056,0.0051,0.0086,0.0105,0.0107,0.006,0.0056,0.0053,0.0041,0.0083,0,0,0,0,0,-0.0148,-0.0152,-0.0132,-0.0136,-0.0132,-0.0107,-0.01,-0.0086,-0.0063,-0.0054,-0.0025,0.0008,0.0035,0.0051,0.0078,0.0096,0.013,0.0103,0.0099,0.0096,0.0093,0.0136,0.0136,0.0138,0.0138,0.0138,0,0,-0.0158,-0.015,-0.0152,-0.0141,-0.0129,-0.013,-0.0102,-0.0096,-0.0095,-0.0048,-0.0038,-0.0006,0.0036,0.0055,0.0067,0.0078,0.0113,0.0096,0.0092,0.0091,0.0136,0.0136,0.0135,0.0138,0.0138,0.0138,0,0,-0.018,-0.0173,-0.0183,-0.0177,-0.0164,-0.0149,-0.015,-0.0127,-0.0114,-0.0101,-0.0066,-0.0038,0.0001,0.0032,0.0053,0.0047,0.009,0.0057,0.0031,0.0073,0.0073,0.0073,0.0115,0.0119,0.0057,0.0057,0.0057,0,-0.0193,-0.0204,-0.0184,-0.0193,-0.0194,-0.0162,-0.0174,-0.0157,-0.0129,-0.0119,-0.0106,-0.0044,-0.0009,0.0021,0.0019,0.0039,0.0069,0.0041,0.0067,0.0068,0.0069,0.0112,0.0118,0.0054,0.0055,0.0055,0.0055,0,-0.0222,-0.0232,-0.0239,-0.0241,-0.0237,-0.0243,-0.022,-0.0211,-0.0192,-0.017,-0.014,-0.0091,-0.0053,-0.0036,-0.0011,0.0017,0.0037,0.0054,0.0074,0.0065,0.0112,0.0119,0.005,0.0051,0.0052,0.0053,0,0,-0.0248,-0.0258,-0.0261,-0.0275,-0.0265,-0.0267,-0.0264,-0.0251,-0.0249,-0.0211,-0.02,-0.0147,-0.0116,-0.0089,-0.0048,-0.001,0.0027,0.002,0.0024,0.0055,0.012,0.0104,0.0111,0.0046,0.0047,0.0048,0.0148,0,-0.0278,-0.0311,-0.0304,-0.0335,-0.035,-0.0327,-0.0329,-0.0311,-0.0285,-0.0264,-0.0203,-0.0176,-0.0136,-0.0118,-0.0075,-0.0,0.0043,-0.0001,0.013,0.0134,0.0115,0.0117,0.0051,0.0154,0.0155,0.0157,0.0157,0,-0.0308,-0.0329,-0.0367,-0.0388,-0.0392,-0.0404,-0.0402,-0.0399,-0.0356,-0.0334,-0.0289,-0.0239,-0.0176,-0.0143,-0.0019,-0.005,0.0028,0.0089,0.0095,0.0104,0.0131,0.0167,0.0171,0.017,0.0169,0.0168,0.0167,0,-0.0341,-0.0372,-0.0407,-0.0415,-0.043,-0.0443,-0.0447,-0.0422,-0.0421,-0.0375,-0.0363,-0.028,-0.0238,-0.0135,-0.0011,-0.0013,0.0128,0.0145,0.0209,0.021,0.022,0.0219,0.0237,0.0237,0.0236,0.0236,0.0236,0,-0.0373,-0.0403,-0.0429,-0.045,-0.0494,-0.0485,-0.0515,-0.0502,-0.0481,-0.0479,-0.0402,-0.0375,-0.0235,-0.0138,-0.0022,0.011,0.0124,0.0205,0.0232,0.0194,0.0189,0.0226,0.0223,0.024,0.0239,0.0238,0.0238,0,-0.0401,-0.0417,-0.0464,-0.0497,-0.0512,-0.0543,-0.057,-0.0583,-0.0557,-0.0549,-0.0537,-0.0441,-0.0315,-0.0169,0.0006,0.0088,0.0222,0.027,0.0216,0.024,0.0281,0.0275,0.0348,0.0348,0.0349,0.0349,0.0349,0,-0.0417,-0.0443,-0.0505,-0.0541,-0.056,-0.0603,-0.063,-0.0624,-0.063,-0.0587,-0.058,-0.0469,-0.0387,-0.015,-0.0003,0.0214,0.0245,0.031,0.0296,0.0272,0.0292,0.0285,0.0279,0.0349,0.0349,0.0349,0.0349,0,-0.0447,-0.0471,-0.051,-0.0585,-0.063,-0.0676,-0.0708,-0.0718,-0.07,-0.0682,-0.0603,-0.0479,-0.0338,-0.0156,0.0009,0.0164,0.0261,0.0313,0.0313,0.0301,0.0274,0.0293,0.0286,0.035,0.035,0.035,0.035,0,-0.0467,-0.0503,-0.0558,-0.0619,-0.0682,-0.0725,-0.0741,-0.0734,-0.0732,-0.0672,-0.0649,-0.0489,-0.0396,-0.0181,-0.0029,0.0117,0.0156,0.0198,0.0205,0.0206,0.0129,0.0072,0.0109,0,0,0,0,0,-0.0483,-0.0523,-0.0587,-0.0653,-0.0716,-0.0747,-0.0781,-0.0782,-0.0766,-0.0714,-0.0677,-0.0539,-0.0313,-0.0215,-0.0069,-0.003,0.0172,0.0143,0.0223,0.0354,0.0353,0.0283,0,0,0,0,0,0,-0.0494,-0.0555,-0.0586,-0.0664,-0.0712,-0.0773,-0.0793,-0.0783,-0.0743,-0.0707,-0.0582,-0.0515,-0.029,-0.0392,-0.0069,-0.0027,0.004,0.0252,0.0255,0.0354,0.0353,0.0353,0.0281,0,0,0,0,0]}]]